This demonstration page uses our WeatherBlox Daily Observations layout. Learn more.

Left ArrowRight Arrow

Hourly Observations for March 6, 2018

Temp ( °F °C ) Dew Point ( °F °C ) Humidity (%) Winds ( mph kmh ) Pressure ( in mb ) Visibility ( mi km ) Precip ( " mm )
12:59 am 00:59 Mostly Clear 37 2.8 25 -3.9 62 62 NE 5 7 30.10 1019 10 16 0.00 0.00
1:59 am 01:59 Mostly Clear 33 0.6 25 -3.9 72 72 Calm 30.09 1019 10 16 0.00 0.00
2:59 am 02:59 Mostly Clear 32 0 26 -3.3 79 79 WSW 3 6 30.07 1018 10 16 0.00 0.00
3:59 am 03:59 Mostly Clear 32 0 26 -3.3 79 79 Calm 30.06 1018 10 16 0.00 0.00
4:59 am 04:59 Mostly Clear 30 -1.1 27 -2.8 88 88 Calm 30.07 1018 10 16 0.00 0.00
5:59 am 05:59 Partly Cloudy 32 0 29 -1.7 88 88 SW 3 6 30.09 1019 10 16 0.00 0.00
6:59 am 06:59 Mostly Cloudy 32 0 30 -1.1 92 92 Calm 30.09 1019 9 14 0.00 0.00
7:59 am 07:59 Mostly Cloudy 41 5 34 1.1 76 76 Calm 30.10 1019 10 16 0.00 0.00
8:59 am 08:59 Mostly Cloudy 44 6.7 32 0 63 63 Calm 30.09 1019 10 16 0.00 0.00
9:59 am 09:59 Mostly Cloudy 45 7.2 29 -1.7 54 54 Calm 30.07 1018 10 16 0.00 0.00
10:59 am 10:59 Mostly Cloudy 48 8.9 29 -1.7 48 48 Calm 30.06 1018 10 16 0.00 0.00
11:59 am 11:59 Cloudy 48 8.9 26 -3.3 42 42 SSW 7 11 30.04 1017 10 16 0.00 0.00
12:59 pm 12:59 Cloudy 48 8.9 26 -3.3 42 42 VRB 5 7 30.01 1016 10 16 0.00 0.00
1:59 pm 13:59 Cloudy with Light Rain 47 8.3 29 -1.7 50 50 S 8 13 29.99 1016 9 14 0.00 0.03
2:59 pm 14:59 Cloudy with Light Rain 47 8.3 30 -1.1 52 52 S 9 15 29.98 1015 10 16 0.00 0.03
3:59 pm 15:59 Cloudy with Light Rain 45 7.2 32 0 61 61 SE 7 11 29.98 1015 10 16 0.00 0.03
4:59 pm 16:59 Cloudy with Light Rain 43 6.1 35 1.7 74 74 ESE 9 15 29.96 1014 10 16 0.00 0.03
5:59 pm 17:59 Cloudy with Light Rain 41 5 37 2.8 86 86 ESE 9 15 29.93 1014 6 10 0.06 1.52
6:59 pm 18:59 Cloudy with Light Rain 41 5 36 2.2 82 82 ESE 10 17 29.90 1012 6 10 0.06 1.52
7:59 pm 19:59 Cloudy with Light Rain 41 5 37 2.8 86 86 ESE 8 13 29.88 1012 6 10 0.06 1.52
8:48 pm 20:48 Cloudy with Light Rain 41 5 37 2.8 86 86 SE 7 11 29.88 1012 6 10 0.08 2.03
8:59 pm 20:59 Cloudy with Light Rain 41 5 37 2.8 86 86 SE 9 15 29.86 1011 5 8 0.10 2.54
9:59 pm 21:59 Cloudy with Light Rain 42 5.6 39 3.9 89 89 SE 10 17 29.83 1010 4 6 0.11 2.79
10:57 pm 22:57 Cloudy with Light Rain 43 6 39 4 87 87 ESE 13 20 29.80 1009 3 4 0.15 3.81
10:59 pm 22:59 Cloudy with Rain 43 6.1 40 4.4 89 89 ESE 13 20 29.79 1009 3 4 0.16 4.06
11:09 pm 23:09 Cloudy with Light Rain 43 6.1 41 5 93 93 ESE 12 19 29.80 1009 3 5 0.03 0.76
11:59 pm 23:59 Cloudy with Mist and Fog 45 7.2 42 5.6 90 90 SE 9 15 29.75 1008 6 10 0.07 1.78

Powered by AerisWeather